Location: Aragnouet
(42.7874°N, 0.2165°E)
Time: 12:03:29
(UTC+00:00)

Cosmos 2228 - Pass Details

Date: 09 April 2020
Orbit: 588 x 619 km, 82.5° (Epoch: 26 May)

Event Time Altitude Azimuth Distance (km) Brightness Sun altitude
Rises 19:05:08 0° 175° (S) 2,831 6.2 -6.2°
Reaches altitude 10° 19:07:21 10° 170° (S) 1,939 5.3 -6.6°
Maximum altitude 19:11:32 53° 94° (E) 745 3.1 -7.3°
Drops below altitude 10° 19:15:47 10° 18° (NNE) 1,973 5.7 -8.1°
Sets 19:18:03 0° 13° (NNE) 2,887 6.6 -8.5°
